iso_date,Year,Hour,Min,DOY,POS_DOY,Lat,Lon,BP,Ts,Ta,has_bp,has_ts,has_ta,BuoyID,Buoy_Type,Buoy_Owner,Logistics,Hemisphere
2021-07-07T18:00:00Z,2021,18,0,188.75,188.75,-70.5914,-7.8254,994.8,-12.0,-32.3,yes,yes,yes,300234066994850,unknown,unknown,unknown,South
2021-07-07T19:00:02Z,2021,19,0,188.7917,188.7917,-70.5914,-7.8254,994.1,-11.4,-31.4,yes,yes,yes,300234066994850,unknown,unknown,unknown,South
2021-07-07T19:59:57Z,2021,20,0,188.8333,188.8333,-70.5914,-7.8254,993.6,-11.1,-32.1,yes,yes,yes,300234066994850,unknown,unknown,unknown,South
2021-07-07T21:00:00Z,2021,21,0,188.875,188.875,-70.5914,-7.8254,993.5,-11.0,-33.3,yes,yes,yes,300234066994850,unknown,unknown,unknown,South
2021-07-07T22:00:02Z,2021,22,0,188.9167,188.9167,-70.5914,-7.8252,993.9,-10.9,-32.3,yes,yes,yes,300234066994850,unknown,unknown,unknown,South
2021-07-07T22:59:57Z,2021,23,0,188.9583,188.9583,-70.5914,-7.8254,994.1,-10.9,-32.2,yes,yes,yes,300234066994850,unknown,unknown,unknown,South
2021-07-08T00:00:00Z,2021,0,0,189.0,189.0,-70.5914,-7.8254,994.3,-10.9,-31.1,yes,yes,yes,300234066994850,unknown,unknown,unknown,South
2021-07-08T01:00:02Z,2021,1,0,189.0417,189.0417,-70.5914,-7.8254,995.0,-10.9,-28.8,yes,yes,yes,300234066994850,unknown,unknown,unknown,South
2021-07-08T01:59:57Z,2021,2,0,189.0833,189.0833,-70.5914,-7.8254,995.6,-10.9,-28.2,yes,yes,yes,300234066994850,unknown,unknown,unknown,South
2021-07-08T03:00:00Z,2021,3,0,189.125,189.125,-70.5914,-7.8254,995.9,-11.0,-27.1,yes,yes,yes,300234066994850,unknown,unknown,unknown,South
2021-07-08T04:00:02Z,2021,4,0,189.1667,189.1667,-70.5914,-7.8252,996.0,-11.0,-28.2,yes,yes,yes,300234066994850,unknown,unknown,unknown,South
2021-07-08T04:59:57Z,2021,5,0,189.2083,189.2083,-70.5914,-7.8254,996.5,-11.0,-28.1,yes,yes,yes,300234066994850,unknown,unknown,unknown,South
2021-07-08T06:00:00Z,2021,6,0,189.25,189.25,-70.5914,-7.8254,997.0,-11.1,-27.1,yes,yes,yes,300234066994850,unknown,unknown,unknown,South
2021-07-08T07:00:02Z,2021,7,0,189.2917,189.2917,-70.5914,-7.8252,997.7,-11.1,-27.0,yes,yes,yes,300234066994850,unknown,unknown,unknown,South
2021-07-08T07:59:57Z,2021,8,0,189.3333,189.3333,-70.5914,-7.8254,998.1,-11.1,-24.1,yes,yes,yes,300234066994850,unknown,unknown,unknown,South
2021-07-08T09:00:00Z,2021,9,0,189.375,189.375,-70.5914,-7.8254,998.7,-11.1,-23.9,yes,yes,yes,300234066994850,unknown,unknown,unknown,South
2021-07-08T10:00:02Z,2021,10,0,189.4167,189.4167,-70.5914,-7.8254,999.5,-11.2,-23.1,yes,yes,yes,300234066994850,unknown,unknown,unknown,South
2021-07-08T10:59:57Z,2021,11,0,189.4583,189.4583,-70.5914,-7.8254,1000.2,-11.2,-23.9,yes,yes,yes,300234066994850,unknown,unknown,unknown,South
2021-07-08T12:00:00Z,2021,12,0,189.5,189.5,-70.5914,-7.8254,1000.6,-11.3,-24.1,yes,yes,yes,300234066994850,unknown,unknown,unknown,South
2021-07-08T13:00:02Z,2021,13,0,189.5417,189.5417,-70.5914,-7.8254,1000.9,-11.3,-23.7,yes,yes,yes,300234066994850,unknown,unknown,unknown,South
2021-07-08T13:59:57Z,2021,14,0,189.5833,189.5833,-70.5914,-7.8252,1001.2,-11.4,-24.1,yes,yes,yes,300234066994850,unknown,unknown,unknown,South
2021-07-08T15:00:00Z,2021,15,0,189.625,189.625,-70.5914,-7.8254,1001.9,-11.5,-24.9,yes,yes,yes,300234066994850,unknown,unknown,unknown,South
2021-07-08T16:00:02Z,2021,16,0,189.6667,189.6667,-70.5914,-7.8252,1001.9,-11.5,-26.1,yes,yes,yes,300234066994850,unknown,unknown,unknown,South
2021-07-08T16:59:57Z,2021,17,0,189.7083,189.7083,-70.5914,-7.8252,1002.1,-11.5,-27.0,yes,yes,yes,300234066994850,unknown,unknown,unknown,South
2021-07-08T18:00:00Z,2021,18,0,189.75,189.75,-70.5914,-7.8254,1002.4,-11.6,-27.3,yes,yes,yes,300234066994850,unknown,unknown,unknown,South
2021-07-08T19:00:02Z,2021,19,0,189.7917,189.7917,-70.5914,-7.8254,1002.5,-11.7,-29.4,yes,yes,yes,300234066994850,unknown,unknown,unknown,South
2021-07-08T19:59:57Z,2021,20,0,189.8333,189.8333,-70.5914,-7.8252,1003.0,-11.7,-27.4,yes,yes,yes,300234066994850,unknown,unknown,unknown,South
2021-07-08T21:00:00Z,2021,21,0,189.875,189.875,-70.5914,-7.8254,1003.3,-11.7,-26.9,yes,yes,yes,300234066994850,unknown,unknown,unknown,South
2021-07-08T22:00:02Z,2021,22,0,189.9167,189.9167,-70.5914,-7.8254,1003.7,-11.8,-28.8,yes,yes,yes,300234066994850,unknown,unknown,unknown,South
2021-07-08T22:59:57Z,2021,23,0,189.9583,189.9583,-70.5914,-7.8254,1003.5,-11.9,-31.7,yes,yes,yes,300234066994850,unknown,unknown,unknown,South
2021-07-09T00:00:00Z,2021,0,0,190.0,190.0,-70.5914,-7.8254,1003.9,-11.9,-30.6,yes,yes,yes,300234066994850,unknown,unknown,unknown,South
2021-07-09T01:00:02Z,2021,1,0,190.0417,190.0417,-70.5914,-7.8254,1004.1,-12.0,-31.0,yes,yes,yes,300234066994850,unknown,unknown,unknown,South
2021-07-09T01:59:57Z,2021,2,0,190.0833,190.0833,-70.5914,-7.8254,1003.8,-12.2,-30.7,yes,yes,yes,300234066994850,unknown,unknown,unknown,South
2021-07-09T03:00:00Z,2021,3,0,190.125,190.125,-70.5914,-7.8254,1004.0,-12.2,-30.8,yes,yes,yes,300234066994850,unknown,unknown,unknown,South
2021-07-09T04:00:02Z,2021,4,0,190.1667,190.1667,-70.5914,-7.8254,1003.6,-12.1,-30.9,yes,yes,yes,300234066994850,unknown,unknown,unknown,South
2021-07-09T04:59:57Z,2021,5,0,190.2083,190.2083,-70.5914,-7.8254,1004.0,-12.0,-27.4,yes,yes,yes,300234066994850,unknown,unknown,unknown,South
2021-07-09T06:00:00Z,2021,6,0,190.25,190.25,-70.5914,-7.8254,1004.1,-11.9,-25.4,yes,yes,yes,300234066994850,unknown,unknown,unknown,South
2021-07-09T07:00:02Z,2021,7,0,190.2917,190.2917,-70.5914,-7.8254,1003.8,-12.0,-29.5,yes,yes,yes,300234066994850,unknown,unknown,unknown,South
2021-07-09T07:59:57Z,2021,8,0,190.3333,190.3333,-70.5914,-7.8254,1004.3,-12.0,-27.7,yes,yes,yes,300234066994850,unknown,unknown,unknown,South
2021-07-09T09:00:00Z,2021,9,0,190.375,190.375,-70.5914,-7.8254,1004.4,-11.9,-25.0,yes,yes,yes,300234066994850,unknown,unknown,unknown,South
2021-07-09T10:00:02Z,2021,10,0,190.4167,190.4167,-70.5914,-7.8254,1004.3,-11.8,-23.4,yes,yes,yes,300234066994850,unknown,unknown,unknown,South
2021-07-09T10:59:57Z,2021,11,0,190.4583,190.4583,-70.5914,-7.8252,1004.3,-11.8,-23.6,yes,yes,yes,300234066994850,unknown,unknown,unknown,South
2021-07-09T12:00:00Z,2021,12,0,190.5,190.5,-70.5914,-7.8254,1004.5,-11.7,-21.8,yes,yes,yes,300234066994850,unknown,unknown,unknown,South
2021-07-09T13:00:02Z,2021,13,0,190.5417,190.5417,-70.5914,-7.8254,1004.3,-11.7,-23.2,yes,yes,yes,300234066994850,unknown,unknown,unknown,South
2021-07-09T13:59:57Z,2021,14,0,190.5833,190.5833,-70.5914,-7.8254,1003.9,-11.8,-23.9,yes,yes,yes,300234066994850,unknown,unknown,unknown,South
2021-07-09T15:00:00Z,2021,15,0,190.625,190.625,-70.5914,-7.8254,1004.0,-11.9,-23.4,yes,yes,yes,300234066994850,unknown,unknown,unknown,South
2021-07-09T16:00:02Z,2021,16,0,190.6667,190.6667,-70.5914,-7.8254,1004.0,-11.8,-23.1,yes,yes,yes,300234066994850,unknown,unknown,unknown,South
2021-07-09T16:59:57Z,2021,17,0,190.7083,190.7083,-70.5914,-7.8252,1003.8,-11.9,-23.0,yes,yes,yes,300234066994850,unknown,unknown,unknown,South
2021-07-09T18:00:00Z,2021,18,0,190.75,190.75,-70.5914,-7.8254,1003.9,-11.9,-22.1,yes,yes,yes,300234066994850,unknown,unknown,unknown,South
2021-07-09T19:00:02Z,2021,19,0,190.7917,190.7917,-70.5914,-7.8252,1003.4,-11.8,-21.8,yes,yes,yes,300234066994850,unknown,unknown,unknown,South
2021-07-09T19:59:57Z,2021,20,0,190.8333,190.8333,-70.5914,-7.8252,1003.7,-11.8,-21.1,yes,yes,yes,300234066994850,unknown,unknown,unknown,South
2021-07-09T21:00:00Z,2021,21,0,190.875,190.875,-70.5914,-7.8254,1003.5,-11.9,-21.7,yes,yes,yes,300234066994850,unknown,unknown,unknown,South
2021-07-09T22:00:02Z,2021,22,0,190.9167,190.9167,-70.5914,-7.8252,1003.2,-11.9,-21.7,yes,yes,yes,300234066994850,unknown,unknown,unknown,South
2021-07-09T22:59:57Z,2021,23,0,190.9583,190.9583,-70.5914,-7.8254,1003.1,-11.9,-21.4,yes,yes,yes,300234066994850,unknown,unknown,unknown,South
2021-07-10T00:00:00Z,2021,0,0,191.0,191.0,-70.5914,-7.8252,1002.6,-11.9,-21.9,yes,yes,yes,300234066994850,unknown,unknown,unknown,South
2021-07-10T01:00:02Z,2021,1,0,191.0417,191.0417,-70.5914,-7.8254,1002.2,-11.9,-21.8,yes,yes,yes,300234066994850,unknown,unknown,unknown,South
2021-07-10T01:59:57Z,2021,2,0,191.0833,191.0833,-70.5914,-7.8254,1001.7,-11.9,-20.8,yes,yes,yes,300234066994850,unknown,unknown,unknown,South
2021-07-10T03:00:00Z,2021,3,0,191.125,191.125,-70.5914,-7.8254,1001.0,-11.8,-21.5,yes,yes,yes,300234066994850,unknown,unknown,unknown,South
2021-07-10T04:00:02Z,2021,4,0,191.1667,191.1667,-70.5914,-7.8254,1000.2,-11.9,-22.3,yes,yes,yes,300234066994850,unknown,unknown,unknown,South
2021-07-10T04:59:57Z,2021,5,0,191.2083,191.2083,-70.5914,-7.8254,999.4,-12.0,-23.0,yes,yes,yes,300234066994850,unknown,unknown,unknown,South
2021-07-10T06:00:00Z,2021,6,0,191.25,191.25,-70.5914,-7.8254,998.6,-12.0,-24.2,yes,yes,yes,300234066994850,unknown,unknown,unknown,South
2021-07-10T07:00:02Z,2021,7,0,191.2917,191.2917,-70.5914,-7.8254,998.1,-11.9,-22.4,yes,yes,yes,300234066994850,unknown,unknown,unknown,South
2021-07-10T07:59:57Z,2021,8,0,191.3333,191.3333,-70.5914,-7.8252,997.2,-11.9,-20.8,yes,yes,yes,300234066994850,unknown,unknown,unknown,South
2021-07-10T09:00:00Z,2021,9,0,191.375,191.375,-70.5914,-7.8252,996.5,-11.8,-20.9,yes,yes,yes,300234066994850,unknown,unknown,unknown,South
2021-07-10T10:00:02Z,2021,10,0,191.4167,191.4167,-70.5914,-7.8254,995.5,-11.8,-22.0,yes,yes,yes,300234066994850,unknown,unknown,unknown,South
2021-07-10T10:59:57Z,2021,11,0,191.4583,191.4583,-70.5914,-7.8254,994.6,-11.8,-23.6,yes,yes,yes,300234066994850,unknown,unknown,unknown,South
2021-07-10T12:00:00Z,2021,12,0,191.5,191.5,-70.5914,-7.8254,993.6,-12.0,-28.4,yes,yes,yes,300234066994850,unknown,unknown,unknown,South
2021-07-10T13:00:02Z,2021,13,0,191.5417,191.5417,-70.5914,-7.8254,992.7,-12.1,-29.4,yes,yes,yes,300234066994850,unknown,unknown,unknown,South
2021-07-10T13:59:57Z,2021,14,0,191.5833,191.5833,-70.5914,-7.8252,992.4,-12.1,-26.8,yes,yes,yes,300234066994850,unknown,unknown,unknown,South
2021-07-10T15:00:00Z,2021,15,0,191.625,191.625,-70.5914,-7.8252,992.0,-12.1,-24.7,yes,yes,yes,300234066994850,unknown,unknown,unknown,South
2021-07-10T16:00:02Z,2021,16,0,191.6667,191.6667,-70.5914,-7.8254,991.1,-12.1,-25.3,yes,yes,yes,300234066994850,unknown,unknown,unknown,South
2021-07-10T16:59:57Z,2021,17,0,191.7083,191.7083,-70.5914,-7.8252,990.4,-12.4,-28.8,yes,yes,yes,300234066994850,unknown,unknown,unknown,South
2021-07-10T18:00:00Z,2021,18,0,191.75,191.75,-70.5914,-7.8254,990.0,-12.5,-31.0,yes,yes,yes,300234066994850,unknown,unknown,unknown,South
2021-07-10T19:00:02Z,2021,19,0,191.7917,191.7917,-70.5914,-7.8254,989.6,-12.8,-32.6,yes,yes,yes,300234066994850,unknown,unknown,unknown,South
2021-07-10T19:59:57Z,2021,20,0,191.8333,191.8333,-70.5914,-7.8256,989.6,-13.0,-32.5,yes,yes,yes,300234066994850,unknown,unknown,unknown,South
2021-07-10T21:00:00Z,2021,21,0,191.875,191.875,-70.5914,-7.8254,989.5,-13.2,-32.2,yes,yes,yes,300234066994850,unknown,unknown,unknown,South
2021-07-10T22:00:02Z,2021,22,0,191.9167,191.9167,-70.5914,-7.8254,989.1,-13.3,-32.5,yes,yes,yes,300234066994850,unknown,unknown,unknown,South
2021-07-10T22:59:57Z,2021,23,0,191.9583,191.9583,-70.5914,-7.8254,989.3,-13.3,-30.3,yes,yes,yes,300234066994850,unknown,unknown,unknown,South
2021-07-11T00:00:00Z,2021,0,0,192.0,192.0,-70.5914,-7.8254,989.2,-13.4,-30.7,yes,yes,yes,300234066994850,unknown,unknown,unknown,South
2021-07-11T01:00:02Z,2021,1,0,192.0417,192.0417,-70.5914,-7.8254,989.2,-13.4,-29.3,yes,yes,yes,300234066994850,unknown,unknown,unknown,South
2021-07-11T01:59:57Z,2021,2,0,192.0833,192.0833,-70.5914,-7.8254,989.1,-13.5,-28.8,yes,yes,yes,300234066994850,unknown,unknown,unknown,South
2021-07-11T03:00:00Z,2021,3,0,192.125,192.125,-70.5914,-7.8254,989.1,-13.3,-25.9,yes,yes,yes,300234066994850,unknown,unknown,unknown,South
2021-07-11T04:00:02Z,2021,4,0,192.1667,192.1667,-70.5914,-7.8254,988.8,-13.4,-27.1,yes,yes,yes,300234066994850,unknown,unknown,unknown,South
2021-07-11T04:59:57Z,2021,5,0,192.2083,192.2083,-70.5914,-7.8254,988.8,-13.5,-27.8,yes,yes,yes,300234066994850,unknown,unknown,unknown,South
2021-07-11T06:00:00Z,2021,6,0,192.25,192.25,-70.5914,-7.8254,989.1,-13.4,-28.5,yes,yes,yes,300234066994850,unknown,unknown,unknown,South
2021-07-11T07:00:02Z,2021,7,0,192.2917,192.2917,-70.5914,-7.8254,989.5,-13.5,-29.0,yes,yes,yes,300234066994850,unknown,unknown,unknown,South
2021-07-11T07:59:57Z,2021,8,0,192.3333,192.3333,-70.5914,-7.8254,989.4,-13.6,-28.9,yes,yes,yes,300234066994850,unknown,unknown,unknown,South
2021-07-11T09:00:00Z,2021,9,0,192.375,192.375,-70.5914,-7.8252,989.7,-13.6,-29.2,yes,yes,yes,300234066994850,unknown,unknown,unknown,South
2021-07-11T10:00:02Z,2021,10,0,192.4167,192.4167,-70.5914,-7.8254,989.6,-13.7,-30.5,yes,yes,yes,300234066994850,unknown,unknown,unknown,South
2021-07-11T10:59:57Z,2021,11,0,192.4583,192.4583,-70.5914,-7.8254,990.3,-13.7,-29.5,yes,yes,yes,300234066994850,unknown,unknown,unknown,South
2021-07-11T12:00:00Z,2021,12,0,192.5,192.5,-70.5914,-7.8254,990.4,-13.8,-31.5,yes,yes,yes,300234066994850,unknown,unknown,unknown,South
2021-07-11T13:00:02Z,2021,13,0,192.5417,192.5417,-70.5914,-7.8254,990.8,-14.0,-33.0,yes,yes,yes,300234066994850,unknown,unknown,unknown,South
2021-07-11T13:59:57Z,2021,14,0,192.5833,192.5833,-70.5914,-7.8256,991.0,-14.1,-34.9,yes,yes,yes,300234066994850,unknown,unknown,unknown,South
2021-07-11T15:00:00Z,2021,15,0,192.625,192.625,-70.5914,-7.8254,991.2,-14.2,-34.7,yes,yes,yes,300234066994850,unknown,unknown,unknown,South
2021-07-11T16:00:02Z,2021,16,0,192.6667,192.6667,-70.5914,-7.8254,992.1,-14.2,-32.8,yes,yes,yes,300234066994850,unknown,unknown,unknown,South
2021-07-11T16:59:57Z,2021,17,0,192.7083,192.7083,-70.5914,-7.8254,992.2,-14.3,-32.2,yes,yes,yes,300234066994850,unknown,unknown,unknown,South
2021-07-11T18:01:00Z,2021,18,1,192.7507,192.7507,-70.5914,-7.8254,993.1,-14.1,-26.4,yes,yes,yes,300234066994850,unknown,unknown,unknown,South
2021-07-11T19:00:02Z,2021,19,0,192.7917,192.7917,-70.5914,-7.8254,993.0,-13.9,-25.2,yes,yes,yes,300234066994850,unknown,unknown,unknown,South
2021-07-11T19:59:57Z,2021,20,0,192.8333,192.8333,-70.5914,-7.8254,993.2,-14.0,-29.0,yes,yes,yes,300234066994850,unknown,unknown,unknown,South
2021-07-11T21:00:00Z,2021,21,0,192.875,192.875,-70.5914,-7.8252,993.1,-14.1,-29.5,yes,yes,yes,300234066994850,unknown,unknown,unknown,South
2021-07-11T22:00:02Z,2021,22,0,192.9167,192.9167,-70.5914,-7.8254,993.7,-14.1,-29.8,yes,yes,yes,300234066994850,unknown,unknown,unknown,South
2021-07-11T22:59:57Z,2021,23,0,192.9583,192.9583,-70.5914,-7.8252,994.4,-14.1,-31.6,yes,yes,yes,300234066994850,unknown,unknown,unknown,South
2021-07-12T00:00:00Z,2021,0,0,193.0,193.0,-70.5914,-7.8254,994.8,-14.2,-32.2,yes,yes,yes,300234066994850,unknown,unknown,unknown,South
2021-07-12T01:00:02Z,2021,1,0,193.0417,193.0417,-70.5914,-7.8254,995.2,-14.2,-31.3,yes,yes,yes,300234066994850,unknown,unknown,unknown,South
2021-07-12T01:59:57Z,2021,2,0,193.0833,193.0833,-70.5914,-7.8254,995.6,-14.2,-31.0,yes,yes,yes,300234066994850,unknown,unknown,unknown,South
2021-07-12T03:00:00Z,2021,3,0,193.125,193.125,-70.5914,-7.8254,995.7,-14.3,-30.1,yes,yes,yes,300234066994850,unknown,unknown,unknown,South
2021-07-12T04:00:02Z,2021,4,0,193.1667,193.1667,-70.5914,-7.8254,996.0,-14.3,-29.9,yes,yes,yes,300234066994850,unknown,unknown,unknown,South
2021-07-12T04:59:57Z,2021,5,0,193.2083,193.2083,-70.5914,-7.8254,996.4,-14.3,-29.6,yes,yes,yes,300234066994850,unknown,unknown,unknown,South
2021-07-12T06:00:00Z,2021,6,0,193.25,193.25,-70.5914,-7.8254,996.8,-14.4,-30.4,yes,yes,yes,300234066994850,unknown,unknown,unknown,South
2021-07-12T07:00:02Z,2021,7,0,193.2917,193.2917,-70.5914,-7.8254,997.1,-14.3,-29.0,yes,yes,yes,300234066994850,unknown,unknown,unknown,South
2021-07-12T07:59:57Z,2021,8,0,193.3333,193.3333,-70.5914,-7.8252,997.6,-14.3,-30.4,yes,yes,yes,300234066994850,unknown,unknown,unknown,South
2021-07-12T09:00:00Z,2021,9,0,193.375,193.375,-70.5914,-7.8252,997.9,-14.4,-32.8,yes,yes,yes,300234066994850,unknown,unknown,unknown,South
2021-07-12T10:00:02Z,2021,10,0,193.4167,193.4167,-70.5914,-7.8254,998.4,-14.5,-31.6,yes,yes,yes,300234066994850,unknown,unknown,unknown,South
2021-07-12T10:59:57Z,2021,11,0,193.4583,193.4583,-70.5914,-7.8254,998.7,-14.5,-31.2,yes,yes,yes,300234066994850,unknown,unknown,unknown,South
2021-07-12T12:00:00Z,2021,12,0,193.5,193.5,-70.5914,-7.8254,999.0,-14.5,-29.9,yes,yes,yes,300234066994850,unknown,unknown,unknown,South
2021-07-12T13:00:02Z,2021,13,0,193.5417,193.5417,-70.5914,-7.8254,999.4,-14.5,-27.8,yes,yes,yes,300234066994850,unknown,unknown,unknown,South
2021-07-12T13:59:57Z,2021,14,0,193.5833,193.5833,-70.5914,-7.8254,999.5,-14.5,-28.3,yes,yes,yes,300234066994850,unknown,unknown,unknown,South
2021-07-12T15:00:00Z,2021,15,0,193.625,193.625,-70.5914,-7.8254,999.3,-14.5,-27.5,yes,yes,yes,300234066994850,unknown,unknown,unknown,South
2021-07-12T16:00:02Z,2021,16,0,193.6667,193.6667,-70.5914,-7.8254,999.4,-14.5,-27.7,yes,yes,yes,300234066994850,unknown,unknown,unknown,South
2021-07-12T16:59:57Z,2021,17,0,193.7083,193.7083,-70.5914,-7.8254,999.6,-14.5,-27.4,yes,yes,yes,300234066994850,unknown,unknown,unknown,South
2021-07-12T18:00:00Z,2021,18,0,193.75,193.75,-70.5914,-7.8254,999.4,-14.5,-28.5,yes,yes,yes,300234066994850,unknown,unknown,unknown,South
2021-07-12T19:00:02Z,2021,19,0,193.7917,193.7917,-70.5914,-7.8254,999.3,-14.6,-30.4,yes,yes,yes,300234066994850,unknown,unknown,unknown,South
2021-07-12T19:59:57Z,2021,20,0,193.8333,193.8333,-70.5914,-7.8254,999.5,-14.5,-29.8,yes,yes,yes,300234066994850,unknown,unknown,unknown,South
2021-07-12T21:00:00Z,2021,21,0,193.875,193.875,-70.5914,-7.8254,999.2,-14.7,-32.8,yes,yes,yes,300234066994850,unknown,unknown,unknown,South
2021-07-12T22:00:02Z,2021,22,0,193.9167,193.9167,-70.5914,-7.8254,999.1,-14.8,-33.5,yes,yes,yes,300234066994850,unknown,unknown,unknown,South
2021-07-12T22:59:57Z,2021,23,0,193.9583,193.9583,-70.5914,-7.8254,998.9,-14.9,-33.5,yes,yes,yes,300234066994850,unknown,unknown,unknown,South
2021-07-13T00:00:00Z,2021,0,0,194.0,194.0,-70.5914,-7.8254,998.8,-15.0,-32.6,yes,yes,yes,300234066994850,unknown,unknown,unknown,South
2021-07-13T01:00:02Z,2021,1,0,194.0417,194.0417,-70.5914,-7.8254,998.3,-15.0,-32.2,yes,yes,yes,300234066994850,unknown,unknown,unknown,South
2021-07-13T01:59:57Z,2021,2,0,194.0833,194.0833,-70.5914,-7.8254,998.0,-15.0,-32.6,yes,yes,yes,300234066994850,unknown,unknown,unknown,South
2021-07-13T03:00:00Z,2021,3,0,194.125,194.125,-70.5914,-7.8254,997.6,-15.0,-33.2,yes,yes,yes,300234066994850,unknown,unknown,unknown,South
2021-07-13T04:00:02Z,2021,4,0,194.1667,194.1667,-70.5914,-7.8254,997.1,-15.1,-33.6,yes,yes,yes,300234066994850,unknown,unknown,unknown,South
2021-07-13T04:59:57Z,2021,5,0,194.2083,194.2083,-70.5914,-7.8254,996.7,-15.1,-32.8,yes,yes,yes,300234066994850,unknown,unknown,unknown,South
2021-07-13T06:00:00Z,2021,6,0,194.25,194.25,-70.5914,-7.8254,996.4,-15.2,-33.2,yes,yes,yes,300234066994850,unknown,unknown,unknown,South
2021-07-13T07:00:02Z,2021,7,0,194.2917,194.2917,-70.5914,-7.8254,996.2,-15.0,-33.3,yes,yes,yes,300234066994850,unknown,unknown,unknown,South
2021-07-13T07:59:57Z,2021,8,0,194.3333,194.3333,-70.5914,-7.8252,995.7,-15.2,-35.5,yes,yes,yes,300234066994850,unknown,unknown,unknown,South
2021-07-13T09:00:00Z,2021,9,0,194.375,194.375,-70.5914,-7.8254,995.7,-15.3,-34.7,yes,yes,yes,300234066994850,unknown,unknown,unknown,South
2021-07-13T10:00:02Z,2021,10,0,194.4167,194.4167,-70.5914,-7.8254,995.3,-15.3,-33.4,yes,yes,yes,300234066994850,unknown,unknown,unknown,South
2021-07-13T10:59:57Z,2021,11,0,194.4583,194.4583,-70.5914,-7.8254,995.1,-15.3,-33.2,yes,yes,yes,300234066994850,unknown,unknown,unknown,South
2021-07-13T12:00:00Z,2021,12,0,194.5,194.5,-70.5914,-7.8254,994.9,-15.2,-32.1,yes,yes,yes,300234066994850,unknown,unknown,unknown,South
2021-07-13T13:00:02Z,2021,13,0,194.5417,194.5417,-70.5914,-7.8254,994.9,-15.1,-32.2,yes,yes,yes,300234066994850,unknown,unknown,unknown,South
2021-07-13T13:59:57Z,2021,14,0,194.5833,194.5833,-70.5914,-7.8252,994.5,-15.1,-31.4,yes,yes,yes,300234066994850,unknown,unknown,unknown,South
2021-07-13T15:00:00Z,2021,15,0,194.625,194.625,-70.5914,-7.8254,994.4,-15.0,-31.5,yes,yes,yes,300234066994850,unknown,unknown,unknown,South
2021-07-13T16:00:02Z,2021,16,0,194.6667,194.6667,-70.5914,-7.8254,994.5,-15.0,-30.9,yes,yes,yes,300234066994850,unknown,unknown,unknown,South
2021-07-13T16:59:57Z,2021,17,0,194.7083,194.7083,-70.5914,-7.8254,994.2,-15.1,-32.8,yes,yes,yes,300234066994850,unknown,unknown,unknown,South
2021-07-13T18:00:00Z,2021,18,0,194.75,194.75,-70.5914,-7.8254,994.2,-15.2,-31.7,yes,yes,yes,300234066994850,unknown,unknown,unknown,South
2021-07-13T19:00:02Z,2021,19,0,194.7917,194.7917,-70.5914,-7.8252,994.3,-15.2,-32.2,yes,yes,yes,300234066994850,unknown,unknown,unknown,South
2021-07-13T19:59:57Z,2021,20,0,194.8333,194.8333,-70.5914,-7.8254,994.2,-15.1,-30.4,yes,yes,yes,300234066994850,unknown,unknown,unknown,South
2021-07-13T21:00:00Z,2021,21,0,194.875,194.875,-70.5914,-7.8254,994.3,-15.1,-29.3,yes,yes,yes,300234066994850,unknown,unknown,unknown,South
2021-07-13T22:01:03Z,2021,22,1,194.9174,194.9174,-70.5914,-7.8254,994.5,-15.0,-28.8,yes,yes,yes,300234066994850,unknown,unknown,unknown,South
2021-07-13T23:00:57Z,2021,23,1,194.959,194.959,-70.5914,-7.8252,994.7,-15.0,-28.5,yes,yes,yes,300234066994850,unknown,unknown,unknown,South
2021-07-14T00:01:00Z,2021,0,1,195.0007,195.0007,-70.5914,-7.8252,994.8,-15.0,-28.5,yes,yes,yes,300234066994850,unknown,unknown,unknown,South
2021-07-14T01:01:03Z,2021,1,1,195.0424,195.0424,-70.5914,-7.8254,995.0,-14.9,-27.9,yes,yes,yes,300234066994850,unknown,unknown,unknown,South
2021-07-14T01:59:57Z,2021,2,0,195.0833,195.0833,-70.5914,-7.8254,994.9,-14.9,-28.7,yes,yes,yes,300234066994850,unknown,unknown,unknown,South
2021-07-14T03:00:00Z,2021,3,0,195.125,195.125,-70.5914,-7.8254,995.3,-14.9,-29.2,yes,yes,yes,300234066994850,unknown,unknown,unknown,South
2021-07-14T04:00:02Z,2021,4,0,195.1667,195.1667,-70.5914,-7.8254,995.4,-15.0,-28.8,yes,yes,yes,300234066994850,unknown,unknown,unknown,South
2021-07-14T04:59:57Z,2021,5,0,195.2083,195.2083,-70.5914,-7.8254,995.5,-14.9,-28.1,yes,yes,yes,300234066994850,unknown,unknown,unknown,South
2021-07-14T06:00:00Z,2021,6,0,195.25,195.25,-70.5914,-7.8254,995.6,-14.9,-27.5,yes,yes,yes,300234066994850,unknown,unknown,unknown,South
2021-07-14T07:00:02Z,2021,7,0,195.2917,195.2917,-70.5914,-7.8254,995.7,-14.8,-26.6,yes,yes,yes,300234066994850,unknown,unknown,unknown,South
2021-07-14T07:59:57Z,2021,8,0,195.3333,195.3333,-70.5914,-7.8252,995.6,-14.7,-25.5,yes,yes,yes,300234066994850,unknown,unknown,unknown,South
2021-07-14T09:00:00Z,2021,9,0,195.375,195.375,-70.5914,-7.8254,995.8,-14.7,-26.8,yes,yes,yes,300234066994850,unknown,unknown,unknown,South
2021-07-14T10:00:02Z,2021,10,0,195.4167,195.4167,-70.5914,-7.8254,996.2,-14.6,-23.6,yes,yes,yes,300234066994850,unknown,unknown,unknown,South
2021-07-14T10:59:57Z,2021,11,0,195.4583,195.4583,-70.5914,-7.8254,995.9,-14.6,-24.6,yes,yes,yes,300234066994850,unknown,unknown,unknown,South
2021-07-14T12:00:00Z,2021,12,0,195.5,195.5,-70.5914,-7.8254,996.1,-14.6,-26.7,yes,yes,yes,300234066994850,unknown,unknown,unknown,South
2021-07-14T13:00:02Z,2021,13,0,195.5417,195.5417,-70.5914,-7.8252,996.2,-14.5,-24.7,yes,yes,yes,300234066994850,unknown,unknown,unknown,South
2021-07-14T13:59:57Z,2021,14,0,195.5833,195.5833,-70.5914,-7.8254,996.0,-14.6,-24.8,yes,yes,yes,300234066994850,unknown,unknown,unknown,South
2021-07-14T15:00:00Z,2021,15,0,195.625,195.625,-70.5914,-7.8252,995.6,-14.6,-25.6,yes,yes,yes,300234066994850,unknown,unknown,unknown,South
2021-07-14T16:00:02Z,2021,16,0,195.6667,195.6667,-70.5914,-7.8254,995.3,-14.6,-25.8,yes,yes,yes,300234066994850,unknown,unknown,unknown,South
2021-07-14T16:59:57Z,2021,17,0,195.7083,195.7083,-70.5914,-7.8252,995.0,-14.7,-25.7,yes,yes,yes,300234066994850,unknown,unknown,unknown,South
2021-07-14T18:00:00Z,2021,18,0,195.75,195.75,-70.5914,-7.8254,994.8,-14.6,-25.2,yes,yes,yes,300234066994850,unknown,unknown,unknown,South